EW4052 Weather Reports


time (UTC)temp
F
wind
direction
speed
knots
gust
knots
rain 1hr
in
rain 24hr
in
rain mn
in
humidity
%
barometer
mb
20260503021511 54 234 0.0 0.0 0.00 0.00 0.00 48 1012.8
20260503020011 54 234 0.0 0.0 0.00 0.00 0.00 47 1012.9
20260503014513 55 234 0.0 0.0 0.00 0.00 0.00 48 1012.8
20260503013017 56 234 0.0 0.0 0.00 0.00 0.00 45 1012.8
20260503011508 58 234 0.0 0.0 0.00 0.00 0.00 41 1012.7
20260503010008 59 234 0.0 2.6 0.00 0.00 0.00 39 1012.8
20260503004508 60 238 0.0 3.5 0.00 0.00 0.00 36 1012.8
20260503003005 61 244 0.0 6.1 0.00 0.00 0.00 34 1012.9
20260503001504 62 244 0.0 4.3 0.00 0.00 0.00 33 1013.1
20260503000003 63 237 3.5 9.6 0.00 0.00 0.00 32 1013.3
20260502234502 64 223 1.7 10.4 0.00 0.00 0.00 30 1013.5
20260502233108 64 237 1.7 8.7 0.00 0.00 0.00 32 1013.5
20260502231618 64 257 1.7 7.0 0.00 0.00 0.00 30 1013.6
20260502230058 64 225 7.0 10.4 0.00 0.00 0.00 32 1013.9
20260502224600 64 238 0.9 7.8 0.00 0.00 0.00 34 1014.0
20260502223053 64 230 4.3 13.0 0.00 0.00 0.00 31 1014.2
20260502221554 64 240 3.5 10.4 0.00 0.00 0.00 34 1014.2
20260502220051 64 242 0.0 8.7 0.00 0.00 0.00 30 1014.5
20260502214549 63 253 1.7 10.4 0.00 0.00 0.00 36 1014.7
20260502213045 64 214 0.0 11.3 0.00 0.00 0.00 30 1014.8
20260502211542 63 214 4.3 11.3 0.00 0.00 0.00 30 1015.3
20260502210042 62 251 1.7 8.7 0.00 0.00 0.00 34 1015.3
20260502204542 62 231 4.3 8.7 0.00 0.00 0.00 31 1015.6
20260502203036 63 234 4.3 13.0 0.00 0.00 0.00 32 1015.9
20260502201536 62 240 5.2 14.8 0.00 0.00 0.00 32 1016.1
20260502200032 62 234 7.0 13.9 0.00 0.00 0.00 31 1016.3
20260502194528 61 220 1.7 9.6 0.00 0.00 0.00 30 1016.5
20260502193026 60 243 5.2 7.8 0.00 0.00 0.00 34 1016.7
20260502191526 60 270 0.9 11.3 0.00 0.00 0.00 33 1017.0
20260502190027 60 254 3.5 12.2 0.00 0.00 0.00 32 1017.3
20260502184519 59 240 7.0 14.8 0.00 0.00 0.00 30 1017.6
20260502183016 60 244 0.9 7.8 0.00 0.00 0.00 31 1017.9
20260502181513 59 227 4.3 14.8 0.00 0.00 0.00 31 1018.1
20260502163056 54 243 2.6 7.8 0.00 0.00 0.00 40 1019.4
20260502161619 53 252 1.7 12.2 0.00 0.00 0.00 42 1019.6
20260502160116 53 254 5.2 8.7 0.00 0.00 0.00 43 1019.7
20260502151544 51 252 3.5 11.3 0.00 0.00 0.00 47 1020.1
20260502123012 0 273 0.9 3.5 0.00 0.00 0.00 1020.2
20260502121506 0 281 0.0 0.0 0.00 0.00 0.00 1020.2
20260502114559 0 287 0.0 0.0 0.00 0.00 0.00 1019.9
20260502113054 0 288 0.0 0.9 0.00 0.00 0.00 1019.8
20260502111552 0 288 0.0 0.0 0.00 0.00 0.00 1019.8
20260502110049 34 288 0.0 0.0 0.00 0.00 0.00 68 1019.8
20260502104544 35 288 0.0 0.0 0.00 0.00 0.00 68 1019.8
20260502103043 35 288 0.0 0.0 0.00 0.00 0.00 70 1019.7
20260502101550 34 288 0.0 0.0 0.00 0.00 0.00 72 1019.8
20260502071518 39 288 0.0 0.0 0.00 0.00 0.00 66 1019.7
20260502070020 39 288 0.0 0.0 0.00 0.00 0.00 66 1019.7
20260502064518 39 288 0.0 0.0 0.00 0.00 0.00 67 1019.7
20260502063015 39 288 0.0 0.0 0.00 0.00 0.00 68 1019.7
20260502061513 40 288 0.0 0.0 0.00 0.00 0.00 67 1019.8
20260502060011 40 288 0.0 0.0 0.00 0.00 0.00 66 1019.7
20260502054515 41 288 0.0 0.0 0.00 0.00 0.00 65 1019.6
20260502053004 42 288 0.0 0.0 0.00 0.00 0.00 63 1019.6
20260502051502 43 288 0.0 2.6 0.00 0.00 0.00 61 1019.5
20260502050058 44 288 0.0 0.0 0.00 0.00 0.00 59 1019.5
20260502044557 44 287 0.0 0.0 0.00 0.00 0.00 59 1019.4
20260502043110 45 286 0.0 0.0 0.00 0.00 0.00 58 1019.3
20260502041557 46 308 1.7 4.3 0.00 0.00 0.00 58 1019.2
20260502040105 46 317 1.7 5.2 0.00 0.00 0.00 58 1019.2
20260502034602 47 336 4.3 7.0 0.00 0.00 0.00 57 1019.2
20260502033058 46 310 3.5 6.1 0.00 0.00 0.00 57 1019.2
20260502031552 46 306 2.6 5.2 0.00 0.00 0.00 57 1019.2
20260502030052 47 307 0.9 3.5 0.00 0.00 0.00 56 1019.2
20260502024608 47 320 0.0 5.2 0.00 0.00 0.00 54 1019.0
20260502023049 47 313 2.6 6.1 0.00 0.00 0.00 52 1018.8